Weather History for Monte Terminillo, Italy

Change the Weather History Date:

Sunday, November 18, 2012

  Actual Average Record
Temperature  
Mean Temperature 37 °F -  
Max Temperature 41 °F 35 °F 46 °F (2006)
Min Temperature 33 °F 27 °F 17 °F (2005)
Degree Days  
Heating Degree Days 28    
Moisture  
Dew Point 37 °F    
Average Humidity 94    
Maximum Humidity 100    
Minimum Humidity 87    
Precipitation  
Precipitation 0.00 in - - ()
Sea Level Pressure  
Sea Level Pressure 29.97 in    
Wind  
Wind Speed 14 mph ()    
Max Wind Speed 25 mph    
Max Gust Speed -    
Visibility 0.0 miles    
Events Fog , Rain    
Averages and records for this station are not official NWS values.
T = Trace of Precipitation, MM = Missing Value Source: Averaged Metar Reports

Daily Weather History Graph

Daily Weather History Graph

Search for Another Location

Airport:

Trip Planner

Search our weather history database for the weather conditions in past years. The results will help you decide how hot, cold, wet, or windy it might be!

Date:

Astronomy

Nov. 18, 2012 Rise Set
Actual Time 7:03 AM CET 4:43 PM CET
Civil Twilight 6:32 AM CET 5:13 PM CET
Nautical Twilight 5:58 AM CET 5:47 PM CET
Astronomical Twilight 5:24 AM CET 6:21 PM CET
Moon 11:17 AM CET (11/18) 9:44 PM CET (11/18)
Length of Visible Light 10h 41m
Length of Day
9h 39m
Waxing Crescent, 27% of the Moon is Illuminated
Nov 18
Waxing Crescent
Nov 20
First Quarter
Nov 28
Full
Dec 6
Last Quarter
Dec 13
New

Hourly Weather History & Observations

Time (CET) Temp. Dew Point Humidity Pressure Visibility Wind Dir Wind Speed Gust Speed Precip Events Conditions
12:55 AM 41.0 °F 37.4 °F 87% 30.01 in 0.0 mi North - - N/A Fog Fog
1:00 AM 40 °F 38 °F 88%  in 0 mi NE 18.4 mph - -  
1:55 AM 41.0 °F 37.4 °F 87% 30.01 in 0.0 mi North - - N/A Fog Fog
2:55 AM 41.0 °F 37.4 °F 87% 29.98 in 0.0 mi North - - N/A Fog Fog
3:55 AM 41.0 °F 37.4 °F 87% 29.98 in 0.0 mi North - - N/A Fog Fog
4:55 AM 41.0 °F 37.4 °F 87% 29.98 in 0.0 mi North - - N/A Fog Fog
5:55 AM 39.2 °F 37.4 °F 93% 29.98 in 0.0 mi North - - N/A Fog Fog
6:55 AM 39.2 °F 37.4 °F 93% 29.98 in 0.0 mi North - - N/A Fog Fog
7:00 AM 39 °F 36 °F 87%  in 0 mi East 18.4 mph - -  
7:55 AM 39.2 °F 37.4 °F 93% 29.98 in 0.0 mi North - - N/A Fog Fog
8:55 AM 39.2 °F 37.4 °F 93% 29.98 in 0.0 mi North - - N/A Fog Fog
9:55 AM 39.2 °F 37.4 °F 93% 29.98 in 0.0 mi North - - N/A Fog Fog
10:55 AM 39.2 °F 37.4 °F 93% 29.98 in 0.0 mi North - - N/A Fog Fog
11:55 AM 39.2 °F 37.4 °F 93% 29.98 in 0.0 mi North - - N/A Fog , Rain Light Rain
12:55 PM 39.2 °F 37.4 °F 93% 29.98 in 0.0 mi North - - N/A Fog , Rain Light Rain
1:00 PM 40 °F 37 °F 87%  in 0 mi ENE 13.8 mph - -  
1:55 PM 39.2 °F 39.2 °F 100% 29.98 in 0.0 mi North - - N/A Fog , Rain Light Rain
2:55 PM 39.2 °F 37.4 °F 93% 29.98 in 0.0 mi North - - N/A Fog Fog
3:55 PM 37.4 °F 37.4 °F 100% 29.98 in 0.0 mi North - - N/A Fog Fog
4:55 PM 37.4 °F 37.4 °F 100% 29.98 in 0.0 mi North - - N/A Fog Fog
5:55 PM 39.2 °F 39.2 °F 100% 29.95 in 0.0 mi North - - N/A Fog , Rain Light Rain
6:55 PM 37.4 °F 37.4 °F 100% 29.95 in 0.0 mi North - - N/A Fog , Rain Light Rain
7:00 PM 37 °F 37 °F 100%  in 0 mi NE 25.3 mph - -  
7:55 PM 35.6 °F 35.6 °F 100% 29.95 in 0.0 mi North - - N/A Fog Fog
8:55 PM 35.6 °F 35.6 °F 100% 29.95 in 0.0 mi North - - N/A Fog Fog
9:55 PM 33.8 °F 33.8 °F 100% 29.95 in 0.0 mi North - - N/A Fog Fog
10:55 PM 33.8 °F 33.8 °F 100% 29.95 in 0.0 mi North - - N/A Fog , Rain Heavy Rain
11:55 PM 33.8 °F 33.8 °F 100% 29.95 in 0.0 mi North - - N/A Fog , Rain Heavy Rain